Tracking 22779 objects as of 14-Apr-2021
HD Live streaming from Space Station
objects crossing your sky now

COSMOS 1158

Track COSMOS 1158 now!
10-day predictions
COSMOS 1158 is classified as:


NORAD ID: 11693
Int'l Code: 1980-012C
Perigee: 1,440.8 km
Apogee: 1,483.1 km
Inclination: 74.0 °
Period: 115.0 minutes
Semi major axis: 7832 km
RCS: 0.707 m2 (medium)
Launch date: February 11, 1980
Source: Commonwealth of Independent States (former USSR) (CIS)
Launch site: PLESETSK MISSILE AND SPACE COMPLEX (PKMTR)
aabbcc
Your satellite tracking list
Your tracking list is empty




NASA's NSSDC Master Catalog

Two Line Element Set (TLE):
1 11693U 80012C   21102.60164833 -.00000028  00000-0 -79522-4 0  9999
2 11693  74.0213 228.9284 0027013 123.6497 249.0409 12.52311179881916
Source of the keplerian elements: AFSPC